Location: Arroyo Retuerta
(40.5469°N, 4.3534°W)
Time: 18:18:10
(UTC+00:00)

Tiangong - Visible Passes

Search period start: 03 August 2021 00:00
Search period end: 13 August 2021 00:00
Orbit: 373 x 386 km, 41.5° (Epoch: 03 August)

Date Brightness Start Highest point End Pass type
(mag) Time Alt. Az. Time Alt. Az. Time Alt. Az.
05 Aug 3.7 04:44:08 10° S 04:45:30 12° SE 04:46:52 10° ESE visible
07 Aug 3.0 04:17:20 12° SSW 04:19:18 20° SSE 04:21:41 10° E visible
08 Aug 3.8 03:18:52 11° SE 03:18:52 11° SE 03:19:15 10° SE visible
08 Aug 1.6 04:51:20 10° WSW 04:54:23 50° SSE 04:57:28 10° E visible
09 Aug 2.2 03:52:27 28° S 03:53:06 31° SSE 03:55:56 10° E visible
10 Aug 4.0 02:53:54 11° ESE 02:53:54 11° ESE 02:54:09 10° ESE visible
10 Aug 1.0 04:26:00 17° WSW 04:28:16 72° SSE 04:31:24 10° E visible
11 Aug 1.8 03:27:25 42° SE 03:27:25 42° SE 03:29:57 10° E visible
12 Aug 1.0 04:00:55 34° W 04:02:08 87° NNW 04:05:17 10° E visible
